Weather History for El Centro, CA

Change the Weather History Date:

Friday, September 7, 2012

  Actual Average Record
Temperature  
Mean Temperature 92 °F -  
Max Temperature 102 °F 102 °F 113 °F (2011)
Min Temperature 82 °F 77 °F 69 °F (2010)
Cooling Degree Days 27    
Growing Degree Days 42 (Base 50)    
Moisture  
Dew Point 62 °F    
Average Humidity 36    
Maximum Humidity 51    
Minimum Humidity 25    
Precipitation  
Precipitation 0.00 in - - ()
Sea Level Pressure  
Sea Level Pressure 29.88 in    
Wind  
Wind Speed 5 mph (SW)    
Max Wind Speed 10 mph    
Max Gust Speed -    
Visibility 10 miles    
Events      
Averages and records for this station are not official NWS values.
T = Trace of Precipitation, MM = Missing Value Source: NWS Daily Summary

Daily Weather History Graph

Daily Weather History Graph

Search for Another Location

Airport:

Trip Planner

Search our weather history database for the weather conditions in past years. The results will help you decide how hot, cold, wet, or windy it might be!

Date:

Astronomy

Sep. 07, 2012 Rise Set
Actual Time 6:21 AM PDT 6:58 PM PDT
Civil Twilight 5:56 AM PDT 7:23 PM PDT
Nautical Twilight 5:27 AM PDT 7:52 PM PDT
Astronomical Twilight 4:57 AM PDT 8:22 PM PDT
Moon 11:21 PM PDT (9/7) 12:54 PM PDT (9/7)
Length of Visible Light 13h 27m
Length of Day
12h 37m
Waning Gibbous, 57% of the Moon is Illuminated
Sep 7
Waning Gibbous
Sep 8
Last Quarter
Sep 15
New
Sep 22
First Quarter
Sep 29
Full

Hourly Weather History & Observations

Time (PDT) Temp. Heat Index Dew Point Humidity Pressure Visibility Wind Dir Wind Speed Gust Speed Precip Events Conditions
12:56 AM 88.0 °F 86.5 °F 55.9 °F 34% 29.86 in 10.0 mi West 4.6 mph - N/A   Clear
1:56 AM 87.1 °F 85.7 °F 55.9 °F 35% 29.86 in 10.0 mi West 4.6 mph - N/A   Clear
2:56 AM 86.0 °F 84.9 °F 57.0 °F 37% 29.86 in 10.0 mi North 3.5 mph - N/A   Clear
3:56 AM 86.0 °F 85.4 °F 59.0 °F 40% 29.87 in 10.0 mi SW 5.8 mph - N/A   Clear
4:56 AM 84.0 °F 83.8 °F 59.0 °F 43% 29.88 in 10.0 mi WSW 5.8 mph - N/A   Clear
5:56 AM 82.9 °F 82.6 °F 57.9 °F 42% 29.90 in 10.0 mi West 5.8 mph - N/A   Clear
6:56 AM 82.0 °F 81.7 °F 57.0 °F 42% 29.91 in 10.0 mi West 5.8 mph - N/A   Clear
7:56 AM 88.0 °F 86.9 °F 57.9 °F 36% 29.93 in 10.0 mi Calm Calm - N/A   Clear
8:56 AM 91.0 °F 91.9 °F 63.0 °F 39% 29.95 in 10.0 mi West 4.6 mph - N/A   Clear
9:56 AM 93.9 °F 99.1 °F 69.1 °F 44% 29.95 in 10.0 mi NW 9.2 mph - N/A   Clear
10:56 AM 96.1 °F 99.3 °F 66.0 °F 37% 29.94 in 10.0 mi North 8.1 mph - N/A   Clear
11:56 AM 98.1 °F 99.6 °F 63.0 °F 31% 29.94 in 10.0 mi WNW 8.1 mph - N/A   Partly Cloudy
12:56 PM 99.0 °F 100.5 °F 62.1 °F 30% 29.91 in 10.0 mi West 4.6 mph - N/A   Partly Cloudy
1:56 PM 100.9 °F 102.1 °F 61.0 °F 27% 29.88 in 10.0 mi SE 9.2 mph - N/A   Partly Cloudy
2:56 PM 102.9 °F 104.8 °F 62.1 °F 26% 29.86 in 10.0 mi ESE 10.4 mph - N/A   Partly Cloudy
3:56 PM 102.0 °F 102.7 °F 60.1 °F 25% 29.84 in 10.0 mi Variable 6.9 mph - N/A   Partly Cloudy
4:56 PM 102.0 °F 102.7 °F 60.1 °F 25% 29.83 in 10.0 mi SE 5.8 mph - N/A   Partly Cloudy
5:56 PM 102.0 °F 102.7 °F 60.1 °F 25% 29.83 in 10.0 mi ESE 5.8 mph - N/A   Scattered Clouds
6:56 PM 98.1 °F 102.4 °F 66.9 °F 36% 29.82 in 10.0 mi SE 5.8 mph - N/A   Clear
7:56 PM 95.0 °F 97.9 °F 66.0 °F 38% 29.84 in 10.0 mi ESE 4.6 mph - N/A   Clear
8:56 PM 95.0 °F 97.9 °F 66.0 °F 38% 29.85 in 10.0 mi South 5.8 mph - N/A   Clear
9:56 PM 93.9 °F 97.0 °F 66.0 °F 40% 29.86 in 10.0 mi SSE 5.8 mph - N/A   Clear
10:56 PM 91.9 °F 95.4 °F 66.9 °F 44% 29.85 in 10.0 mi South 3.5 mph - N/A   Clear
11:56 PM 88.0 °F 91.4 °F 68.0 °F 51% 29.85 in 10.0 mi Calm Calm - N/A   Clear